^^
Station Historical Data
Daily Summary for April 27, 2021 Units:  English    Metric   Both
Daily Weekly Monthly Yearly
  High: Low: Average:
Temperature: 62.5 °F 43 °F 49.1 °F
Dew Point: 50.4 °F 34.1 °F 41.4 °F
Humidity: 87% 61% 75%
Wind Speed: 10mph 0mph 3mph
Wind Gust: 12mph - -
Wind- - SE
Pressure: 29.92 in 29.73 in -
Precipitation: 0.06 in    
 
 
Tabular Data for April 27, 2021
Time Temperature Dew Point Pressure Wind Wind Speed Wind Gust Humidity Rainfall Rate (Hourly) solar
00:00 43 °F 35.3 °F 29.92 in ESE 8 mph 8 mph 74% 0.00 in 0 W/m2
00:05 43.1 °F 35.4 °F 29.91 in ESE 8 mph 9 mph 74% 0.00 in 0 W/m2
00:10 43.2 °F 35.5 °F 29.91 in SE 8 mph 9 mph 74% 0.00 in 0 W/m2
00:15 43.4 °F 35.7 °F 29.90 in SE 9 mph 9 mph 74% 0.00 in 0 W/m2
00:20 43.4 °F 35.3 °F 29.90 in SE 9 mph 9 mph 73% 0.00 in 0 W/m2
00:25 43.5 °F 35.1 °F 29.89 in SSE 9 mph 12 mph 72% 0.00 in 0 W/m2
00:30 43.6 °F 35.2 °F 29.90 in ESE 9 mph 9 mph 72% 0.00 in 0 W/m2
00:35 43.7 °F 35.3 °F 29.89 in SE 9 mph 10 mph 72% 0.00 in 0 W/m2
00:40 43.8 °F 34.6 °F 29.89 in ESE 9 mph 9 mph 70% 0.00 in 0 W/m2
00:45 43.9 °F 34.7 °F 29.88 in SE 9 mph 9 mph 70% 0.00 in 0 W/m2
00:50 43.9 °F 34.7 °F 29.88 in SE 9 mph 10 mph 70% 0.00 in 0 W/m2
00:55 44 °F 34.8 °F 29.88 in SE 10 mph 10 mph 70% 0.00 in 0 W/m2
01:00 44 °F 34.1 °F 29.88 in SE 10 mph 10 mph 68% 0.00 in 0 W/m2
01:05 44.1 °F 34.6 °F 29.87 in SE 10 mph 11 mph 69% 0.00 in 0 W/m2
01:10 44.1 °F 34.9 °F 29.87 in SE 10 mph 10 mph 70% 0.00 in 0 W/m2
01:15 44.2 °F 35 °F 29.86 in ESE 10 mph 10 mph 70% 0.00 in 0 W/m2
01:20 44.2 °F 34.7 °F 29.86 in SE 10 mph 10 mph 69% 0.00 in 0 W/m2
01:25 44.2 °F 35 °F 29.86 in ESE 10 mph 10 mph 70% 0.00 in 0 W/m2
01:30 44.2 °F 35 °F 29.85 in SE 10 mph 10 mph 70% 0.00 in 0 W/m2
01:35 44.4 °F 35.2 °F 29.85 in SE 9 mph 10 mph 70% 0.00 in 0 W/m2
01:40 44.4 °F 35.2 °F 29.85 in SE 7 mph 7 mph 70% 0.00 in 0 W/m2
01:45 44.4 °F 35.2 °F 29.85 in SE 7 mph 8 mph 70% 0.00 in 0 W/m2
01:50 44.4 °F 35.2 °F 29.85 in SSE 7 mph 7 mph 70% 0.00 in 0 W/m2
01:55 44.5 °F 35.3 °F 29.85 in ESE 6 mph 7 mph 70% 0.00 in 0 W/m2
02:00 44.4 °F 35.6 °F 29.85 in SE 5 mph 5 mph 71% 0.00 in 0 W/m2
02:05 44.4 °F 35.2 °F 29.85 in SSE 4 mph 5 mph 70% 0.00 in 0 W/m2
02:10 44.4 °F 34.9 °F 29.84 in ESE 4 mph 6 mph 69% 0.00 in 0 W/m2
02:15 44.4 °F 35.2 °F 29.84 in WNW 4 mph 6 mph 70% 0.00 in 0 W/m2
02:20 44.4 °F 34.9 °F 29.84 in ESE 4 mph 8 mph 69% 0.00 in 0 W/m2
02:25 44.4 °F 35.2 °F 29.84 in SSW 4 mph 8 mph 70% 0.00 in 0 W/m2
02:30 44.5 °F 35.7 °F 29.83 in SW 5 mph 5 mph 71% 0.00 in 0 W/m2
02:35 44.6 °F 35.8 °F 29.83 in East 4 mph 5 mph 71% 0.00 in 0 W/m2
02:40 44.5 °F 35.7 °F 29.83 in East 3 mph 3 mph 71% 0.00 in 0 W/m2
02:45 44.6 °F 35.8 °F 29.83 in SSW 3 mph 3 mph 71% 0.00 in 0 W/m2
02:50 44.9 °F 36.1 °F 29.83 in North 2 mph 2 mph 71% 0.00 in 0 W/m2
02:55 45.1 °F 35.5 °F 29.83 in ENE 3 mph 3 mph 69% 0.00 in 0 W/m2
03:00 45.1 °F 35.9 °F 29.83 in NNW 3 mph 3 mph 70% 0.00 in 0 W/m2
03:05 45.1 °F 35.9 °F 29.82 in West 3 mph 6 mph 70% 0.00 in 0 W/m2
03:10 45.2 °F 36 °F 29.82 in WNW 3 mph 3 mph 70% 0.00 in 0 W/m2
03:15 45.2 °F 36 °F 29.82 in NW 3 mph 4 mph 70% 0.00 in 0 W/m2
03:20 45.3 °F 36.4 °F 29.82 in North 3 mph 4 mph 71% 0.00 in 0 W/m2
03:25 45.4 °F 35.8 °F 29.82 in NNE 4 mph 4 mph 69% 0.00 in 0 W/m2
03:30 45.4 °F 36.5 °F 29.82 in East 4 mph 4 mph 71% 0.00 in 0 W/m2
03:35 45.3 °F 35.7 °F 29.82 in WNW 4 mph 4 mph 69% 0.00 in 0 W/m2
03:40 45.2 °F 36 °F 29.82 in NNW 4 mph 4 mph 70% 0.00 in 0 W/m2
03:45 45.1 °F 35.9 °F 29.82 in NW 3 mph 4 mph 70% 0.00 in 0 W/m2
03:50 45 °F 35.4 °F 29.82 in ENE 3 mph 3 mph 69% 0.00 in 0 W/m2
03:55 44.9 °F 35.7 °F 29.81 in NNW 3 mph 3 mph 70% 0.00 in 0 W/m2
04:00 44.9 °F 35.7 °F 29.81 in NE 2 mph 2 mph 70% 0.00 in 0 W/m2
04:05 44.9 °F 35.7 °F 29.81 in NW 3 mph 3 mph 70% 0.00 in 0 W/m2
04:10 44.8 °F 35.6 °F 29.81 in WSW 3 mph 3 mph 70% 0.00 in 0 W/m2
04:15 44.8 °F 35.6 °F 29.82 in NW 3 mph 3 mph 70% 0.00 in 0 W/m2
04:20 44.7 °F 35.5 °F 29.82 in NW 2 mph 2 mph 70% 0.00 in 0 W/m2
04:25 44.6 °F 35.4 °F 29.82 in NW 2 mph 2 mph 70% 0.00 in 0 W/m2
04:30 44.6 °F 35.1 °F 29.82 in West 2 mph 2 mph 69% 0.00 in 0 W/m2
04:35 44.5 °F 35 °F 29.82 in NNW 2 mph 2 mph 69% 0.00 in 0 W/m2
04:40 44.5 °F 35 °F 29.82 in NW 2 mph 2 mph 69% 0.00 in 0 W/m2
04:45 44.4 °F 34.9 °F 29.82 in North 2 mph 2 mph 69% 0.00 in 0 W/m2
04:50 44.4 °F 35.2 °F 29.83 in NNE 2 mph 2 mph 70% 0.00 in 0 W/m2
04:55 44.4 °F 34.9 °F 29.83 in NNE 2 mph 2 mph 69% 0.00 in 0 W/m2
05:00 44.3 °F 34.8 °F 29.83 in NNE 1 mph 1 mph 69% 0.00 in 0 W/m2
05:05 44.2 °F 34.7 °F 29.83 in NW 1 mph 1 mph 69% 0.00 in 0 W/m2
05:10 44.3 °F 35.1 °F 29.83 in NW 1 mph 1 mph 70% 0.00 in 0 W/m2
05:15 44.2 °F 35 °F 29.83 in SE 1 mph 1 mph 70% 0.00 in 0 W/m2
05:20 44.3 °F 35.1 °F 29.83 in ESE 1 mph 1 mph 70% 0.00 in 0 W/m2
05:25 44.3 °F 35.1 °F 29.83 in SE 1 mph 1 mph 70% 0.00 in 0 W/m2
05:30 44.4 °F 34.9 °F 29.83 in SSE 1 mph 1 mph 69% 0.00 in 0 W/m2
05:35 44.4 °F 34.9 °F 29.83 in SSE 1 mph 2 mph 69% 0.00 in 0 W/m2
05:40 44.5 °F 35.3 °F 29.83 in SSE 1 mph 1 mph 70% 0.00 in 0 W/m2
05:45 44.5 °F 35.7 °F 29.83 in SSE 1 mph 1 mph 71% 0.00 in 0 W/m2
05:50 44.5 °F 35 °F 29.83 in SSE 1 mph 1 mph 69% 0.00 in 0 W/m2
05:55 44.4 °F 34.9 °F 29.83 in SSE 1 mph 1 mph 69% 0.00 in 0 W/m2
06:00 44.4 °F 34.9 °F 29.83 in SSE 1 mph 1 mph 69% 0.00 in 0 W/m2
06:05 44.2 °F 34.3 °F 29.83 in SSE 1 mph 1 mph 68% 0.00 in 0 W/m2
06:10 44.2 °F 34.7 °F 29.83 in SSE 1 mph 2 mph 69% 0.00 in 0 W/m2
06:15 44.2 °F 34.3 °F 29.83 in SSE 2 mph 2 mph 68% 0.00 in 0 W/m2
06:20 44.2 °F 34.7 °F 29.83 in SSE 2 mph 2 mph 69% 0.00 in 0 W/m2
06:25 44.2 °F 34.3 °F 29.82 in SSE 1 mph 2 mph 68% 0.00 in 0 W/m2
06:30 44.3 °F 34.8 °F 29.83 in SSE 1 mph 1 mph 69% 0.00 in 5 W/m2
06:35 44.2 °F 34.7 °F 29.83 in SSE 1 mph 1 mph 69% 0.00 in 7 W/m2
06:40 44.2 °F 34.7 °F 29.83 in SSE 2 mph 2 mph 69% 0.00 in 7 W/m2
06:45 44.3 °F 35.1 °F 29.83 in SSE 2 mph 2 mph 70% 0.00 in 11 W/m2
06:50 44.2 °F 35.4 °F 29.82 in SE 2 mph 2 mph 71% 0.00 in 16 W/m2
06:55 44.2 °F 35 °F 29.82 in SE 2 mph 2 mph 70% 0.00 in 19 W/m2
07:00 44.1 °F 35.3 °F 29.82 in SE 2 mph 2 mph 71% 0.00 in 23 W/m2
07:05 44.1 °F 35.6 °F 29.82 in ESE 2 mph 3 mph 72% 0.00 in 28 W/m2
07:10 44.1 °F 36 °F 29.83 in SE 2 mph 3 mph 73% 0.00 in 33 W/m2
07:15 44.1 °F 36.3 °F 29.83 in SE 2 mph 3 mph 74% 0.00 in 39 W/m2
07:20 44.2 °F 36.4 °F 29.83 in SE 3 mph 3 mph 74% 0.00 in 44 W/m2
07:25 44.2 °F 36.8 °F 29.83 in SE 3 mph 3 mph 75% 0.00 in 49 W/m2
07:30 44.4 °F 37.3 °F 29.83 in SE 3 mph 3 mph 76% 0.00 in 49 W/m2
07:35 44.5 °F 37.4 °F 29.83 in ESE 3 mph 4 mph 76% 0.00 in 56 W/m2
07:40 44.7 °F 37.3 °F 29.82 in SE 3 mph 3 mph 75% 0.00 in 69 W/m2
07:45 44.9 °F 37.1 °F 29.82 in SE 3 mph 3 mph 74% 0.00 in 76 W/m2
07:50 44.9 °F 37.5 °F 29.83 in SE 3 mph 3 mph 75% 0.00 in 77 W/m2
07:55 45.1 °F 37.3 °F 29.83 in SE 3 mph 3 mph 74% 0.00 in 77 W/m2
08:00 45.2 °F 37.7 °F 29.83 in ESE 3 mph 3 mph 75% 0.00 in 93 W/m2
08:05 45.2 °F 37.7 °F 29.82 in SE 3 mph 3 mph 75% 0.00 in 118 W/m2
08:10 45.4 °F 38.3 °F 29.83 in South 2 mph 2 mph 76% 0.00 in 114 W/m2
08:15 45.5 °F 38 °F 29.83 in SE 2 mph 3 mph 75% 0.00 in 107 W/m2
08:20 45.7 °F 38.6 °F 29.83 in SE 3 mph 3 mph 76% 0.00 in 118 W/m2
08:25 45.8 °F 39 °F 29.83 in ESE 3 mph 3 mph 77% 0.00 in 130 W/m2
08:30 45.9 °F 38.8 °F 29.82 in ESE 2 mph 2 mph 76% 0.00 in 151 W/m2
08:35 46.1 °F 39 °F 29.83 in SE 3 mph 3 mph 76% 0.00 in 153 W/m2
08:40 46.3 °F 39.1 °F 29.83 in SE 3 mph 4 mph 76% 0.00 in 120 W/m2
08:45 46.4 °F 39.2 °F 29.82 in SE 3 mph 4 mph 76% 0.00 in 121 W/m2
08:50 46.6 °F 39.4 °F 29.81 in SE 3 mph 3 mph 76% 0.00 in 174 W/m2
08:55 46.8 °F 40.3 °F 29.83 in SE 3 mph 3 mph 78% 0.00 in 265 W/m2
09:00 47 °F 40.2 °F 29.83 in SSE 2 mph 2 mph 77% 0.00 in 225 W/m2
09:05 47.2 °F 40.4 °F 29.83 in SSE 1 mph 2 mph 77% 0.00 in 172 W/m2
09:10 47.3 °F 40.8 °F 29.82 in SSE 1 mph 2 mph 78% 0.00 in 236 W/m2
09:15 47.5 °F 41 °F 29.82 in SSE 2 mph 3 mph 78% 0.00 in 251 W/m2
09:20 47.9 °F 41.4 °F 29.82 in SSE 3 mph 3 mph 78% 0.00 in 432 W/m2
09:25 48.2 °F 41.3 °F 29.81 in SSE 3 mph 3 mph 77% 0.00 in 332 W/m2
09:30 48.6 °F 41.7 °F 29.81 in SSE 3 mph 3 mph 77% 0.00 in 327 W/m2
09:35 49 °F 42.1 °F 29.81 in SSE 3 mph 3 mph 77% 0.00 in 383 W/m2
09:40 49.5 °F 43.3 °F 29.81 in SSE 2 mph 2 mph 79% 0.00 in 387 W/m2
09:45 49.8 °F 43.5 °F 29.81 in SSE 2 mph 3 mph 79% 0.00 in 322 W/m2
09:50 50.1 °F 43.8 °F 29.81 in SSE 2 mph 2 mph 79% 0.00 in 318 W/m2
09:55 50.2 °F 43.9 °F 29.81 in SSE 1 mph 2 mph 79% 0.00 in 322 W/m2
10:00 50.3 °F 43.7 °F 29.81 in SSE 1 mph 1 mph 78% 0.00 in 323 W/m2
10:05 50.6 °F 43.7 °F 29.81 in SSE 1 mph 1 mph 77% 0.00 in 341 W/m2
10:10 50.7 °F 43.8 °F 29.81 in SSE 1 mph 1 mph 77% 0.00 in 424 W/m2
10:15 51.1 °F 44.5 °F 29.81 in Calm   1 mph 78% 0.00 in 441 W/m2
10:20 51.5 °F 44.5 °F 29.80 in Calm   1 mph 77% 0.00 in 425 W/m2
10:25 51.7 °F 44.4 °F 29.80 in SSE 1 mph 2 mph 76% 0.00 in 420 W/m2
10:30 52.1 °F 45.1 °F 29.80 in SSE 2 mph 2 mph 77% 0.00 in 394 W/m2
10:35 52.7 °F 45.3 °F 29.80 in SSE 2 mph 2 mph 76% 0.00 in 432 W/m2
10:40 53.3 °F 44.9 °F 29.80 in SSE 1 mph 1 mph 73% 0.00 in 417 W/m2
10:45 53.3 °F 44.9 °F 29.80 in Calm   1 mph 73% 0.00 in 383 W/m2
10:50 53.6 °F 45.2 °F 29.80 in Calm     73% 0.00 in 513 W/m2
10:55 53.9 °F 45.1 °F 29.80 in Calm   1 mph 72% 0.00 in 501 W/m2
11:00 54.3 °F 45.8 °F 29.81 in Calm   2 mph 73% 0.00 in 594 W/m2
11:05 54.9 °F 46.8 °F 29.80 in SSE 1 mph 2 mph 74% 0.00 in 540 W/m2
11:10 55.5 °F 46.2 °F 29.80 in SSE 1 mph 1 mph 71% 0.00 in 603 W/m2
11:15 56.1 °F 46.1 °F 29.80 in Calm   1 mph 69% 0.00 in 592 W/m2
11:20 56.4 °F 46 °F 29.80 in Calm   2 mph 68% 0.00 in 540 W/m2
11:25 57 °F 46.1 °F 29.81 in SSE 1 mph 2 mph 67% 0.00 in 550 W/m2
11:30 57.9 °F 46.2 °F 29.82 in SSE 1 mph 1 mph 65% 0.00 in 575 W/m2
11:35 58.6 °F 46 °F 29.82 in SSE 1 mph 2 mph 63% 0.00 in 670 W/m2
11:40 57.6 °F 47.5 °F 29.81 in NNW 1 mph 3 mph 69% 0.00 in 613 W/m2
11:45 56.4 °F 47.1 °F 29.81 in North 2 mph 3 mph 71% 0.00 in 701 W/m2
11:50 55.7 °F 46.1 °F 29.81 in North 2 mph 3 mph 70% 0.00 in 638 W/m2
11:55 55.2 °F 46.7 °F 29.81 in North 3 mph 5 mph 73% 0.00 in 726 W/m2
12:00 53.7 °F 45.2 °F 29.80 in North 3 mph 5 mph 73% 0.00 in 717 W/m2
12:05 52.7 °F 44.6 °F 29.81 in NNW 4 mph 5 mph 74% 0.00 in 691 W/m2
12:10 53.1 °F 45.4 °F 29.81 in NNW 4 mph 4 mph 75% 0.00 in 689 W/m2
12:15 54.9 °F 45.3 °F 29.81 in North 3 mph 4 mph 70% 0.00 in 742 W/m2
12:20 55.1 °F 45.5 °F 29.80 in NNE 2 mph 3 mph 70% 0.00 in 461 W/m2
12:25 55.2 °F 45.6 °F 29.80 in North 2 mph 3 mph 70% 0.00 in 638 W/m2
12:30 55.1 °F 45.5 °F 29.79 in NNE 2 mph 3 mph 70% 0.00 in 378 W/m2
12:35 54.2 °F 45 °F 29.80 in NNE 3 mph 4 mph 71% 0.00 in 376 W/m2
12:40 53.2 °F 45.1 °F 29.80 in ENE 3 mph 3 mph 74% 0.00 in 338 W/m2
12:45 53.2 °F 45.1 °F 29.80 in NE 3 mph 3 mph 74% 0.00 in 468 W/m2
12:50 53.5 °F 45.8 °F 29.80 in NNE 2 mph 2 mph 75% 0.00 in 508 W/m2
12:55 54.4 °F 45.6 °F 29.79 in NNE 2 mph 2 mph 72% 0.00 in 545 W/m2
13:00 54.9 °F 45.3 °F 29.79 in ENE 2 mph 2 mph 70% 0.00 in 592 W/m2
13:05 55.5 °F 45.5 °F 29.79 in ENE 2 mph 2 mph 69% 0.00 in 480 W/m2
13:10 56.2 °F 45.8 °F 29.78 in ENE 1 mph 2 mph 68% 0.00 in 533 W/m2
13:15 57.1 °F 46.6 °F 29.78 in ENE 1 mph 2 mph 68% 0.00 in 476 W/m2
13:20 57.5 °F 47 °F 29.78 in ENE 1 mph 1 mph 68% 0.00 in 487 W/m2
13:25 57.8 °F 47.7 °F 29.77 in ENE 2 mph 2 mph 69% 0.00 in 522 W/m2
13:30 58.6 °F 47.3 °F 29.78 in ENE 1 mph 1 mph 66% 0.00 in 436 W/m2
13:35 59 °F 47.2 °F 29.77 in ENE 1 mph 1 mph 65% 0.00 in 381 W/m2
13:40 60.5 °F 48.7 °F 29.75 in NE 1 mph 2 mph 65% 0.00 in 585 W/m2
13:45 58.3 °F 47 °F 29.75 in NE 2 mph 2 mph 66% 0.00 in 475 W/m2
13:50 57.8 °F 48.1 °F 29.76 in NE 1 mph 1 mph 70% 0.00 in 454 W/m2
13:55 60.1 °F 49.1 °F 29.75 in NE 1 mph 3 mph 67% 0.00 in 527 W/m2
14:00 61 °F 49.1 °F 29.75 in NE 1 mph 1 mph 65% 0.00 in 476 W/m2
14:05 62.3 °F 50.4 °F 29.75 in NE 1 mph 1 mph 65% 0.00 in 438 W/m2
14:10 60.5 °F 48.3 °F 29.76 in NNW 2 mph 2 mph 64% 0.00 in 476 W/m2
14:15 58.6 °F 48.5 °F 29.75 in NNW 2 mph 2 mph 69% 0.00 in 570 W/m2
14:20 60.4 °F 49 °F 29.76 in NNW 2 mph 3 mph 66% 0.00 in 605 W/m2
14:25 60.8 °F 48.5 °F 29.76 in NNW 2 mph 3 mph 64% 0.00 in 555 W/m2
14:30 61.8 °F 49.9 °F 29.76 in NNW 2 mph 2 mph 65% 0.00 in 534 W/m2
14:35 62.5 °F 48.9 °F 29.76 in NNW 2 mph 3 mph 61% 0.00 in 397 W/m2
14:40 60.4 °F 47.7 °F 29.76 in North 2 mph 2 mph 63% 0.00 in 308 W/m2
14:45 58.9 °F 47.6 °F 29.76 in NNW 3 mph 3 mph 66% 0.00 in 341 W/m2
14:50 58.9 °F 48.7 °F 29.74 in NNW 2 mph 2 mph 69% 0.00 in 360 W/m2
14:55 58.7 °F 48.2 °F 29.74 in North 2 mph 2 mph 68% 0.00 in 381 W/m2
15:00 58.4 °F 47.9 °F 29.74 in NE 2 mph 3 mph 68% 0.00 in 397 W/m2
15:05 57.7 °F 48 °F 29.73 in NE 3 mph 4 mph 70% 0.00 in 457 W/m2
15:10 58.2 °F 48.1 °F 29.74 in NNE 3 mph 3 mph 69% 0.00 in 492 W/m2
15:15 57.6 °F 48.6 °F 29.75 in North 3 mph 6 mph 72% 0.00 in 401 W/m2
15:20 55.7 °F 47.2 °F 29.75 in NNW 4 mph 6 mph 73% 0.00 in 392 W/m2
15:25 55 °F 46.5 °F 29.75 in NNE 4 mph 6 mph 73% 0.00 in 439 W/m2
15:30 54.5 °F 46.4 °F 29.75 in North 5 mph 5 mph 74% 0.00 in 501 W/m2
15:35 52.8 °F 45.1 °F 29.76 in NNW 6 mph 10 mph 75% 0.00 in 468 W/m2
15:40 52.5 °F 45.2 °F 29.75 in NNW 7 mph 7 mph 76% 0.00 in 399 W/m2
15:45 53.1 °F 45.7 °F 29.76 in North 6 mph 8 mph 76% 0.00 in 459 W/m2
15:50 53.3 °F 45.9 °F 29.75 in NNW 5 mph 8 mph 76% 0.00 in 352 W/m2
15:55 53.2 °F 45.8 °F 29.75 in North 5 mph 8 mph 76% 0.00 in 269 W/m2
16:00 53.1 °F 45.7 °F 29.75 in North 4 mph 4 mph 76% 0.00 in 223 W/m2
16:05 53 °F 45.6 °F 29.75 in NE 3 mph 4 mph 76% 0.00 in 221 W/m2
16:10 53.1 °F 45.4 °F 29.75 in NNE 3 mph 4 mph 75% 0.00 in 290 W/m2
16:15 53.6 °F 45.9 °F 29.74 in North 3 mph 4 mph 75% 0.00 in 353 W/m2
16:20 54.6 °F 46.8 °F 29.74 in NNE 3 mph 3 mph 75% 0.00 in 475 W/m2
16:25 55.2 °F 46.7 °F 29.74 in NNE 3 mph 3 mph 73% 0.00 in 482 W/m2
16:30 54.9 °F 46.4 °F 29.74 in NE 3 mph 3 mph 73% 0.00 in 327 W/m2
16:35 54.7 °F 46.9 °F 29.74 in NE 3 mph 4 mph 75% 0.00 in 262 W/m2
16:40 54.1 °F 46 °F 29.74 in NE 3 mph 4 mph 74% 0.00 in 211 W/m2
16:45 53.7 °F 46 °F 29.74 in ENE 3 mph 4 mph 75% 0.00 in 200 W/m2
16:50 53.7 °F 46 °F 29.74 in NNE 3 mph 3 mph 75% 0.00 in 206 W/m2
16:55 53.7 °F 46.3 °F 29.74 in NNE 3 mph 3 mph 76% 0.00 in 220 W/m2
17:00 53.7 °F 46.3 °F 29.74 in NNE 3 mph 4 mph 76% 0.00 in 199 W/m2
17:05 53.3 °F 45.9 °F 29.75 in NE 3 mph 4 mph 76% 0.00 in 171 W/m2
17:10 53.1 °F 46.1 °F 29.75 in NE 3 mph 3 mph 77% 0.00 in 162 W/m2
17:15 53.1 °F 46.1 °F 29.75 in NNE 3 mph 4 mph 77% 0.00 in 169 W/m2
17:20 53.3 °F 46.3 °F 29.75 in North 3 mph 3 mph 77% 0.00 in 158 W/m2
17:25 53.4 °F 46.4 °F 29.75 in NE 2 mph 3 mph 77% 0.00 in 153 W/m2
17:30 53.6 °F 46.6 °F 29.74 in NE 2 mph 3 mph 77% 0.00 in 202 W/m2
17:35 53.8 °F 46.8 °F 29.74 in NE 3 mph 6 mph 77% 0.00 in 146 W/m2
17:40 54.2 °F 46.8 °F 29.74 in ENE 4 mph 5 mph 76% 0.00 in 141 W/m2
17:45 54.5 °F 47.1 °F 29.74 in ENE 4 mph 5 mph 76% 0.00 in 93 W/m2
17:50 54.8 °F 47 °F 29.74 in NE 3 mph 3 mph 75% 0.00 in 60 W/m2
17:55 54.9 °F 47.1 °F 29.74 in NE 3 mph 3 mph 75% 0.00 in 47 W/m2
18:00 55 °F 47.2 °F 29.74 in NE 3 mph 3 mph 75% 0.00 in 40 W/m2
18:05 54.9 °F 47.1 °F 29.75 in NNE 3 mph 3 mph 75% 0.00 in 47 W/m2
18:10 54.7 °F 47.3 °F 29.74 in NE 2 mph 3 mph 76% 0.00 in 44 W/m2
18:15 54.8 °F 47.7 °F 29.75 in NNE 3 mph 3 mph 77% 0.00 in 35 W/m2
18:20 54.8 °F 47.7 °F 29.75 in North 2 mph 2 mph 77% 0.00 in 35 W/m2
18:25 54.6 °F 47.5 °F 29.75 in NNE 3 mph 3 mph 77% 0.00 in 30 W/m2
18:30 53.8 °F 45.7 °F 29.76 in North 4 mph 4 mph 74% 0.00 in 23 W/m2
18:35 53 °F 45.3 °F 29.76 in North 3 mph 4 mph 75% 0.00 in 14 W/m2
18:40 52.1 °F 44.8 °F 29.77 in NNW 3 mph 4 mph 76% 0.00 in 14 W/m2
18:45 50.6 °F 43 °F 29.77 in ENE 4 mph 6 mph 75% 0.00 in 11 W/m2
18:50 49.4 °F 42.1 °F 29.78 in NNE 5 mph 5 mph 76% 0.00 in 9 W/m2
18:55 48.4 °F 41.9 °F 29.78 in NE 5 mph 6 mph 78% 0.00 in 9 W/m2
19:00 47.9 °F 41.7 °F 29.79 in NE 5 mph 10 mph 79% 0.00 in 7 W/m2
19:05 47.4 °F 41.5 °F 29.80 in North 5 mph 10 mph 80% 0.00 in 5 W/m2
19:10 47.1 °F 41.6 °F 29.80 in NE 5 mph 5 mph 81% 0.00 in 5 W/m2
19:15 46.8 °F 41.6 °F 29.80 in NE 5 mph 9 mph 82% 0.00 in 5 W/m2
19:20 46.6 °F 41.7 °F 29.81 in NE 5 mph 5 mph 83% 0.00 in 7 W/m2
19:25 46.4 °F 41.8 °F 29.80 in ENE 4 mph 5 mph 84% 0.31 in 21 W/m2
19:30 46.2 °F 41.6 °F 29.81 in ENE 3 mph 3 mph 84% 0.23 in 19 W/m2
19:35 45.9 °F 41.6 °F 29.80 in ENE 4 mph 4 mph 85% 0.14 in 14 W/m2
19:40 45.6 °F 41.4 °F 29.80 in NE 4 mph 4 mph 85% 0.09 in 12 W/m2
19:45 45.5 °F 41.3 °F 29.80 in East 3 mph 5 mph 85% 0.08 in 14 W/m2
19:50 45.3 °F 41.1 °F 29.80 in East 4 mph 4 mph 85% 0.05 in 18 W/m2
19:55 45.2 °F 41 °F 29.80 in NNE 3 mph 4 mph 85% 0.00 in 11 W/m2
20:00 45.2 °F 41 °F 29.80 in ENE 3 mph 3 mph 85% 0.00 in 19 W/m2
20:05 45.1 °F 40.9 °F 29.79 in NNE 4 mph 5 mph 85% 0.00 in 16 W/m2
20:10 44.9 °F 40.4 °F 29.79 in NE 5 mph 5 mph 84% 0.00 in 9 W/m2
20:15 44.9 °F 40.4 °F 29.79 in NE 5 mph 10 mph 84% 0.00 in 7 W/m2
20:20 44.8 °F 40.3 °F 29.79 in ENE 5 mph 5 mph 84% 0.00 in 5 W/m2
20:25 44.8 °F 40.3 °F 29.79 in ENE 4 mph 5 mph 84% 0.00 in 5 W/m2
20:30 44.8 °F 40.6 °F 29.79 in NNW 4 mph 4 mph 85% 0.00 in 0 W/m2
20:35 44.8 °F 40.3 °F 29.79 in NE 3 mph 5 mph 84% 0.00 in 0 W/m2
20:40 44.6 °F 40.1 °F 29.80 in NNE 4 mph 6 mph 84% 0.00 in 0 W/m2
20:45 44.5 °F 40 °F 29.79 in NE 5 mph 6 mph 84% 0.00 in 0 W/m2
20:50 44.4 °F 39.9 °F 29.79 in ENE 4 mph 6 mph 84% 0.00 in 0 W/m2
20:55 44.5 °F 40.3 °F 29.80 in ENE 4 mph 6 mph 85% 0.00 in 0 W/m2
21:00 44.6 °F 40.4 °F 29.80 in NNE 3 mph 3 mph 85% 0.00 in 0 W/m2
21:05 44.7 °F 40.5 °F 29.80 in NNE 2 mph 3 mph 85% 0.00 in 0 W/m2
21:10 44.8 °F 40.9 °F 29.79 in East 2 mph 2 mph 86% 0.00 in 0 W/m2
21:15 44.9 °F 41 °F 29.80 in ENE 2 mph 2 mph 86% 0.00 in 0 W/m2
21:20 45.2 °F 41.3 °F 29.79 in East 2 mph 3 mph 86% 0.00 in 0 W/m2
21:25 45.4 °F 41.5 °F 29.80 in East 2 mph 3 mph 86% 0.00 in 0 W/m2
21:30 45.6 °F 41.7 °F 29.80 in ENE 2 mph 2 mph 86% 0.00 in 0 W/m2
21:35 45.8 °F 41.9 °F 29.80 in ENE 2 mph 2 mph 86% 0.00 in 0 W/m2
21:40 46.1 °F 42.1 °F 29.80 in ENE 2 mph 2 mph 86% 0.00 in 0 W/m2
21:45 46.3 °F 42.3 °F 29.80 in East 2 mph 3 mph 86% 0.00 in 0 W/m2
21:50 46.5 °F 42.2 °F 29.80 in East 2 mph 2 mph 85% 0.00 in 0 W/m2
21:55 46.5 °F 42.2 °F 29.80 in East 2 mph 2 mph 85% 0.00 in 0 W/m2
22:00 46.7 °F 42.4 °F 29.80 in East 1 mph 1 mph 85% 0.00 in 0 W/m2
22:05 46.9 °F 42.6 °F 29.79 in East 1 mph 2 mph 85% 0.00 in 0 W/m2
22:10 47.2 °F 43.2 °F 29.80 in East 1 mph 1 mph 86% 0.00 in 0 W/m2
22:15 47.5 °F 43.5 °F 29.80 in East 1 mph 1 mph 86% 0.00 in 0 W/m2
22:20 47.6 °F 43.6 °F 29.80 in Calm     86% 0.00 in 0 W/m2
22:25 47.7 °F 43.7 °F 29.80 in Calm     86% 0.00 in 0 W/m2
22:30 47.8 °F 43.8 °F 29.80 in Calm     86% 0.00 in 0 W/m2
22:35 47.9 °F 43.9 °F 29.79 in Calm     86% 0.00 in 0 W/m2
22:40 47.9 °F 43.9 °F 29.80 in Calm     86% 0.00 in 0 W/m2
22:45 48 °F 44 °F 29.80 in East 1 mph 1 mph 86% 0.00 in 0 W/m2
22:50 48 °F 44 °F 29.79 in East 1 mph 1 mph 86% 0.00 in 0 W/m2
22:55 48 °F 44 °F 29.79 in East 1 mph 1 mph 86% 0.00 in 0 W/m2
23:00 48.1 °F 44.1 °F 29.79 in East 1 mph 1 mph 86% 0.00 in 0 W/m2
23:05 48.2 °F 44.2 °F 29.79 in East 1 mph 1 mph 86% 0.00 in 0 W/m2
23:10 48.3 °F 44.3 °F 29.78 in Calm   1 mph 86% 0.00 in 0 W/m2
23:20 48.5 °F 44.5 °F 29.79 in ESE 1 mph 3 mph 86% 0.00 in 0 W/m2
23:25 48.8 °F 45.1 °F 29.79 in SE 2 mph 3 mph 87% 0.00 in 0 W/m2
23:30 49 °F 45.3 °F 29.79 in SSE 2 mph 2 mph 87% 0.00 in 0 W/m2
23:35 49.2 °F 45.5 °F 29.79 in SSE 1 mph 2 mph 87% 0.00 in 0 W/m2
23:40 49.3 °F 45.6 °F 29.77 in SE 1 mph 3 mph 87% 0.00 in 0 W/m2
23:45 49.3 °F 45.6 °F 29.78 in SE 2 mph 3 mph 87% 0.00 in 0 W/m2
23:50 49.3 °F 45.6 °F 29.78 in SE 1 mph 1 mph 87% 0.00 in 0 W/m2
23:55 49.3 °F 45.6 °F 29.78 in SE 1 mph 2 mph 87% 0.00 in 0 W/m2
Sand Point, Michigan, USA
Compliments of Weather Underground - 2 mb